Voltar ao catálogo

FENGYUN 1C DEB

AtivoSSO
NORAD 31901·DEBRIS·🇨🇳 China

Lançado May 10, 1999 de Taiyuan Satellite Launch Center

Loading…

Próximas Passagens (próximas 24 horas)

TLE

AtualizadoSource: Space-Track

Época: Sep 14, 2026, 03:31 UTC

1 31901U 99025CLC 26257.14663471  .00000357  00000-0  27722-3 0  9991
2 31901  98.6335 205.0527 0131812 147.1142 213.8308 13.94275842672451

Acompanhe FENGYUN 1C DEB em tempo real com AllMySat

Download on the App Store